[[{"header":{"parameterUnit":"m.s-1","parameterCategory":1,"la1":30.2991,"la2":30.254,"lo1":-89.0895,"lo2":-89.0444,"dy":0.0017,"dx":0.0017,"nx":28,"ny":28,"refTime":"2025-07-20T09:00:00:Z","depth":0,"parameterNumber":2,"parameterNumberName":"U-component_of_WINDS"},"data":[0,0,0,0,0,0,0,0,0,0,0,0,0,0,0,0,0,0,0,0,0,0,0,0,0,0,0,0,0,0,0,0,0,0,0,0,0,0,0,0,0,0,0,0,0,0,0,0,0,0,0,0,0,0,0,0,0,0,3.5388,3.539,0,3.5515,3.5516,3.5517,3.5497,3.5495,3.5492,3.549,3.562,3.5625,3.563,0,0,0,0,0,0,0,0,0,0,0,0,0,3.5129,3.5133,3.5388,3.539,3.5391,3.5514,3.5516,3.5518,3.5497,3.5495,3.5492,3.5489,3.5618,3.5624,3.5631,0,0,0,0,0,0,0,0,0,0,0,0,0,3.5247,3.5135,3.5388,3.5396,3.5398,3.5514,3.5516,3.5518,3.5498,3.5494,3.5491,3.5488,3.5616,3.5624,3.5632,3.5748,0,0,3.5657,3.566,0,0,0,0,0,0,0,0,3.524,3.5256,3.5393,3.5395,3.5398,3.5487,3.5472,3.5595,3.5499,3.546,3.549,3.5487,3.5578,3.5589,3.562,3.5754,3.5759,3.5657,3.5662,3.5666,3.5668,0,0,0,0,0,0,0,3.5232,3.5251,3.5438,3.5395,3.5398,3.5393,3.5406,3.5495,3.5536,3.5463,3.5462,3.5477,3.5579,3.5612,3.5623,3.5761,3.5657,3.5665,3.567,3.5673,3.5996,3.5999,0,0,0,0,0,0,3.5221,3.5244,3.5434,3.5442,3.5309,3.54,3.5415,3.5461,3.5535,3.5543,3.548,3.5476,3.56,3.5613,3.5627,3.5767,3.5666,3.5674,3.5678,3.5992,3.5997,3.6001,0,0,0,0,0,0,3.5216,3.5239,3.5429,3.5343,3.5367,3.5408,3.546,3.5466,3.5499,3.5547,3.5554,3.5506,3.5598,3.5616,3.5718,3.5771,3.5677,3.5685,3.5988,3.5994,3.5999,3.6048,0,0,0,0,0,0,3.5209,3.5237,3.5281,3.5344,3.5371,3.5517,3.5464,3.547,3.5513,3.5509,3.5574,3.5582,3.5596,3.5706,3.5726,3.5781,3.5691,3.5983,3.5991,3.5997,3.6042,3.6054,3.6065,0,0,0,0,0,3.5199,3.529,3.5284,3.5307,3.5428,3.5521,3.5536,3.5551,3.5518,3.5562,3.5594,3.558,3.5763,3.5716,3.5739,3.5797,3.598,3.5989,3.5997,3.6036,3.6052,3.6065,0,0,0,0,0,0,3.5232,3.5298,3.5292,3.5406,3.5458,3.5517,3.5574,3.5567,3.563,3.5623,3.5639,3.5654,3.5757,3.5788,3.5735,3.5913,3.5867,3.588,3.5889,3.5904,3.5916,3.5905,3.5698,0,0,0,0,0,3.5253,3.5323,3.5377,3.5472,3.5499,3.5532,3.5573,3.558,3.5635,3.5656,3.5695,3.5748,3.5818,3.5863,3.5929,3.6047,3.606,3.6098,3.611,3.6119,3.613,3.6193,3.621,3.6028,3.6028,3.6028,0,0,3.5296,3.5341,3.5384,3.548,3.5521,3.5593,3.5551,3.5628,3.5682,3.5668,3.5766,3.5797,3.5858,3.5967,3.6018,3.5996,3.6183,3.613,3.6137,3.6142,3.6203,3.622,3.6236,3.6033,3.6032,3.6032,0,0,3.541,3.5452,3.5535,3.5578,3.564,3.5662,3.5682,3.5743,3.5763,3.5862,3.5853,3.5917,3.6036,3.6079,3.6117,3.6249,3.6238,3.6271,3.6331,3.6393,3.6407,3.642,3.6466,3.6482,3.6281,3.6281,3.6282,0,3.5455,3.5563,3.5579,3.5658,3.57,3.5692,3.5776,3.5816,3.5898,3.5927,3.5901,3.6051,3.6091,3.621,3.6243,3.6274,3.6297,3.6262,3.6404,3.6417,3.6429,3.6473,3.649,3.6285,3.6284,3.6284,3.6284,0,3.5615,3.569,3.575,3.5829,3.5878,3.5959,3.5987,3.6035,3.6038,3.6063,3.6163,3.6212,3.6288,3.6317,3.6321,3.6437,3.6421,3.64,3.6353,3.645,3.6491,3.6508,3.629,3.6288,3.6287,3.6287,0,0,3.5752,3.5839,3.5861,3.5896,3.5966,3.6024,3.6105,3.6179,3.6219,3.6277,3.6344,3.6446,3.6426,3.6469,3.6478,3.6532,3.6632,3.6504,3.6506,3.6525,3.6762,3.6776,3.6795,3.6627,3.663,3.6632,3.6756,0,3.5872,3.6015,3.6031,3.6158,3.6227,3.6221,3.6292,3.6342,3.6367,3.6429,3.6457,3.6528,3.6498,3.6524,3.6577,3.6609,3.668,3.66,3.6689,3.6692,3.6672,3.6817,3.6833,3.6947,3.6773,3.6776,3.6778,0,3.603,3.6092,3.6226,3.6285,3.6315,3.6378,3.6447,3.6507,3.6564,3.6578,3.6627,3.6629,3.6712,3.6664,3.6778,3.6724,3.6761,3.6782,3.6787,3.6794,3.6739,3.6827,3.6984,3.7001,3.6803,3.6801,3.68,0,3.6115,3.6231,3.6326,3.6357,3.6429,3.6474,3.6506,3.6559,3.6603,3.6664,3.6692,3.6762,3.68,3.6854,3.6875,3.6838,3.6988,3.6942,3.7002,3.7002,3.7032,3.703,3.7196,3.706,3.7059,3.7059,3.7059,0,3.6246,3.6328,3.6365,3.6423,3.6515,3.6533,3.6623,3.6653,3.6701,3.6765,3.6765,3.6824,3.6849,3.6913,3.693,3.7022,3.704,3.7053,3.7056,3.7052,3.705,3.7076,3.7067,3.7064,3.7063,3.7062,3.7061,0,3.6355,3.6383,3.6486,3.6547,3.6564,3.6628,3.668,3.6736,3.6761,3.6842,3.6862,3.6901,3.6976,3.7003,3.7094,3.7106,3.7212,3.7209,3.7192,3.7193,3.7251,3.7244,3.7437,3.7463,3.7311,3.7313,3.7314,0,3.6435,3.6498,3.6565,3.6608,3.6642,3.6711,3.6755,3.6777,3.6823,3.6893,3.694,3.7015,3.7076,3.7196,3.7233,3.7303,3.7301,3.7364,3.7311,3.7305,3.73,3.7295,3.7301,3.7373,3.7374,3.7376,3.7377,0,3.6575,3.6586,3.665,3.672,3.6773,3.6829,3.6883,3.6918,3.6947,3.7,3.7076,3.7124,3.7217,3.7291,3.7363,3.7395,3.7391,3.7393,3.7411,3.7406,3.7393,3.7399,3.7217,3.7388,3.7387,3.7386,3.7386,3.7385,3.6671,3.6726,3.6782,3.6854,3.6897,3.6948,3.7003,3.7035,3.71,3.7177,3.7186,3.7269,3.7324,3.742,3.7456,3.7521,3.7503,3.7529,3.7535,3.7541,3.7544,3.7384,3.7534,3.7534,3.7534,3.7533,3.7533,0,3.6809,3.6845,3.6911,3.6987,3.7043,3.7035,3.7094,3.7142,3.7214,3.7266,3.7326,3.7414,3.7486,3.7529,3.7601,3.7645,3.7644,3.7663,3.7659,3.7666,3.7556,3.7533,3.7662,3.7662,3.7662,3.7662,3.7662,3.7661,3.6887,3.698,3.6998,3.7112,3.7147,3.7228,3.7263,3.7309,3.7351,3.7449,3.7509,3.7537,3.7585,3.7661,3.7726,3.7737,3.7763,3.7782,3.7791,3.7687,3.7674,3.7661,3.764,3.7788,3.7789,3.7896,3.7897,3.7897]},{"header":{"parameterUnit":"m.s-1","parameterCategory":1,"la1":30.2991,"la2":30.254,"lo1":-89.0895,"lo2":-89.0444,"dy":0.0017,"dx":0.0017,"nx":28,"ny":28,"refTime":"2025-07-20T09:00:00:Z","depth":0,"parameterNumber":3,"parameterNumberName":"V-component_of_WINDS"},"data":[0,0,0,0,0,0,0,0,0,0,0,0,0,0,0,0,0,0,0,0,0,0,0,0,0,0,0,0,0,0,0,0,0,0,0,0,0,0,0,0,0,0,0,0,0,0,0,0,0,0,0,0,0,0,0,0,0,0,3.2822,3.2823,0,3.2987,3.2989,3.299,3.3017,3.3015,3.3014,3.3012,3.3178,3.3184,3.319,0,0,0,0,0,0,0,0,0,0,0,0,0,3.2526,3.2531,3.2821,3.2823,3.2826,3.2986,3.2989,3.2991,3.3017,3.3015,3.3013,3.3012,3.3176,3.3183,3.319,0,0,0,0,0,0,0,0,0,0,0,0,0,3.2669,3.2533,3.2821,3.2858,3.2863,3.2986,3.2989,3.2991,3.3017,3.3015,3.3013,3.3011,3.3174,3.3183,3.3191,3.3288,0,0,3.3218,3.3221,0,0,0,0,0,0,0,0,3.2661,3.268,3.285,3.2856,3.2861,3.2979,3.2945,3.3091,3.3018,3.2959,3.3012,3.301,3.3114,3.3127,3.3163,3.3296,3.3303,3.3218,3.3224,3.3227,3.323,0,0,0,0,0,0,0,3.2651,3.2673,3.2887,3.2853,3.286,3.2865,3.2883,3.2973,3.3046,3.2964,3.2966,3.2985,3.3116,3.3154,3.3167,3.3305,3.3218,3.3226,3.3231,3.3234,3.3526,3.3528,0,0,0,0,0,0,3.2635,3.2664,3.2881,3.2892,3.2754,3.2873,3.2893,3.2943,3.3045,3.3059,3.2987,3.2986,3.3141,3.3157,3.3173,3.3293,3.3227,3.3235,3.324,3.3523,3.3526,3.3529,0,0,0,0,0,0,3.2628,3.2654,3.2875,3.2779,3.2807,3.288,3.2937,3.2948,3.2986,3.3063,3.3076,3.3013,3.3139,3.3161,3.3259,3.3299,3.3239,3.3247,3.352,3.3524,3.3528,3.3534,0,0,0,0,0,0,3.262,3.2651,3.2689,3.2779,3.2812,3.2959,3.2939,3.2953,3.3001,3.3001,3.3091,3.3103,3.3139,3.3246,3.3268,3.331,3.3254,3.3517,3.3522,3.3526,3.353,3.3537,3.3543,0,0,0,0,0,3.2609,3.2684,3.2691,3.2717,3.2862,3.2962,3.298,3.3022,3.3004,3.3043,3.3092,3.31,3.3291,3.3256,3.3281,3.3326,3.3515,3.3521,3.3526,3.3528,3.3536,3.3543,0,0,0,0,0,0,3.2595,3.2696,3.2706,3.2812,3.2878,3.2966,3.3016,3.3029,3.3101,3.3098,3.3145,3.3165,3.3261,3.3303,3.3263,3.3425,3.3401,3.3412,3.3394,3.3403,3.3409,3.3397,3.3261,0,0,0,0,0,3.2605,3.2679,3.2762,3.2848,3.2881,3.2943,3.2988,3.3014,3.3084,3.3112,3.3168,3.3235,3.331,3.3359,3.3432,3.3536,3.3556,3.358,3.3586,3.3591,3.36,3.3659,3.367,3.3548,3.3548,3.3548,0,0,3.2625,3.2689,3.2733,3.2847,3.2902,3.2976,3.2966,3.3045,3.3101,3.3123,3.3221,3.3265,3.3342,3.3444,3.3492,3.3482,3.3638,3.3598,3.3602,3.3608,3.3666,3.3677,3.3687,3.3552,3.3551,3.355,0,0,3.27,3.2756,3.2834,3.2889,3.2972,3.3013,3.3031,3.3118,3.3148,3.3246,3.3265,3.3331,3.3459,3.3514,3.3559,3.3655,3.3665,3.3677,3.3711,3.3768,3.3777,3.3786,3.3821,3.3832,3.3686,3.3686,3.3686,0,3.2715,3.2829,3.2872,3.2951,3.3001,3.3026,3.3105,3.3155,3.3257,3.3291,3.3279,3.3441,3.3495,3.361,3.3634,3.3669,3.3691,3.3667,3.3773,3.3782,3.3791,3.3824,3.3837,3.3687,3.3687,3.3687,3.3687,0,3.2842,3.2921,3.2974,3.3074,3.3129,3.3207,3.3262,3.3313,3.3334,3.3375,3.3475,3.3541,3.3628,3.3657,3.3678,3.3776,3.3767,3.3763,3.3741,3.3803,3.3835,3.3848,3.3688,3.3688,3.3688,3.3687,0,0,3.2914,3.3037,3.3055,3.3101,3.3194,3.3256,3.3335,3.3421,3.3464,3.3533,3.3601,3.3709,3.3706,3.3757,3.3784,3.3834,3.3906,3.3824,3.3826,3.3837,3.4018,3.402,3.4035,3.3913,3.3916,3.3918,3.4011,0,3.3,3.3144,3.3185,3.3306,3.3379,3.3404,3.3473,3.3537,3.3578,3.3645,3.369,3.3766,3.3757,3.3787,3.3837,3.3886,3.3943,3.388,3.3976,3.3979,3.3956,3.4051,3.4055,3.414,3.4024,3.4026,3.4028,0,3.312,3.3193,3.3321,3.3406,3.3438,3.35,3.3583,3.3647,3.372,3.3746,3.3803,3.3826,3.3909,3.3882,3.3996,3.3953,3.3994,3.4024,3.4028,3.4039,3.4007,3.4065,3.4168,3.4181,3.4048,3.4046,3.4045,0,3.3159,3.329,3.3384,3.3422,3.3523,3.3565,3.3609,3.368,3.373,3.3802,3.3834,3.3914,3.3958,3.4019,3.4063,3.4039,3.4174,3.415,3.4197,3.4196,3.4225,3.4223,3.4336,3.4251,3.4251,3.425,3.425,0,3.3252,3.3329,3.3403,3.346,3.3548,3.3594,3.3679,3.3724,3.3787,3.3853,3.3879,3.394,3.3994,3.4063,3.4097,3.4187,3.4206,3.4229,3.4238,3.4228,3.4225,3.4256,3.4251,3.4254,3.4253,3.4252,3.4252,0,3.3311,3.3363,3.3467,3.3554,3.3578,3.3639,3.3713,3.377,3.3811,3.3895,3.3917,3.3983,3.4064,3.4114,3.4217,3.4241,3.434,3.4345,3.4315,3.4319,3.4364,3.4359,3.4502,3.4523,3.4423,3.4424,3.4425,0,3.3366,3.3427,3.3521,3.3568,3.3612,3.3687,3.3738,3.3786,3.3838,3.3926,3.3972,3.4056,3.4125,3.4255,3.4311,3.439,3.4398,3.4442,3.441,3.4398,3.4399,3.4395,3.4401,3.4448,3.4449,3.4449,3.445,0,3.346,3.3483,3.3556,3.3638,3.3699,3.3765,3.3832,3.3868,3.3927,3.3984,3.4069,3.4123,3.4229,3.4312,3.4396,3.444,3.4455,3.446,3.4475,3.4465,3.4446,3.4457,3.4331,3.4456,3.4456,3.4455,3.4455,3.4455,3.3519,3.3574,3.3649,3.373,3.3785,3.3847,3.3904,3.3954,3.4026,3.4117,3.414,3.4229,3.4301,3.4416,3.4462,3.4531,3.4524,3.4546,3.4552,3.4557,3.4558,3.4434,3.4546,3.4546,3.4546,3.4546,3.4546,0,3.3614,3.3664,3.3737,3.383,3.3893,3.3903,3.3977,3.4029,3.4108,3.4174,3.4242,3.4339,3.442,3.4483,3.4565,3.4609,3.4617,3.4629,3.4626,3.4636,3.4559,3.4538,3.462,3.462,3.462,3.462,3.462,3.462,3.3671,3.3765,3.3797,3.3918,3.3967,3.4055,3.4097,3.4154,3.4207,3.4315,3.4382,3.4423,3.4488,3.4575,3.4649,3.4666,3.4695,3.4705,3.4722,3.4649,3.4641,3.4634,3.4614,3.4711,3.4711,3.4793,3.4794,3.4795]}]]